OAL063 ZJHK-VMMC

Flight info

Callsign OAL063
Flight time 1h 13m
Altitude 5500
Route MLT DCT SIKOU/N0180F055 DCT BIGRO/K0333S0170 DCT TOMUD DCT UJ DCT MCU
Aircraft C208/L-SDFGR/C

Departure

Time 2026-04-21 09:16
Airport Haikou Meilan International Airport (ZJHK)

Arrival

Time 2026-04-21 10:29
Airport Macau International Airport (VMMC)
Time Latitude Longitude Altitude Speed Heading
2026-04-21 08:56 19.93808 110.44480 81 ft 0 kts 360°
2026-04-21 09:14 19.93813 110.44480 85 ft 4 kts
2026-04-21 09:14 19.93801 110.44445 81 ft 15 kts 187°
2026-04-21 09:14 19.93724 110.44409 84 ft 12 kts 265°
2026-04-21 09:15 19.93684 110.44304 84 ft 14 kts 211°
2026-04-21 09:15 19.93574 110.44295 84 ft 20 kts 179°
2026-04-21 09:15 19.93475 110.44386 82 ft 29 kts 92°
2026-04-21 09:15 19.93475 110.44772 79 ft 77 kts 89°
2026-04-21 09:16 19.93486 110.45427 168 ft 102 kts 91°
2026-04-21 09:16 19.93593 110.46213 355 ft 115 kts 67°
2026-04-21 09:16 19.94201 110.46832 570 ft 135 kts 47°
2026-04-21 09:16 19.94901 110.47538 767 ft 145 kts 48°
2026-04-21 09:17 19.95666 110.48287 979 ft 153 kts 46°
2026-04-21 09:17 19.96466 110.49054 1162 ft 157 kts 47°
2026-04-21 09:17 19.97282 110.49837 1360 ft 159 kts 47°
2026-04-21 09:17 19.98097 110.50640 1565 ft 161 kts 47°
2026-04-21 09:18 19.98923 110.51454 1760 ft 163 kts 48°
2026-04-21 09:18 19.99761 110.52269 1960 ft 164 kts 49°
2026-04-21 09:18 20.00610 110.53101 2166 ft 166 kts 49°
2026-04-21 09:18 20.01459 110.53937 2362 ft 167 kts 49°
2026-04-21 09:19 20.02323 110.54778 2567 ft 170 kts 48°
2026-04-21 09:19 20.03196 110.55631 2767 ft 171 kts 49°
2026-04-21 09:19 20.04081 110.56487 2969 ft 173 kts 49°
2026-04-21 09:19 20.04970 110.57349 3164 ft 173 kts 50°
2026-04-21 09:20 20.05856 110.58227 3370 ft 175 kts 50°
2026-04-21 09:20 20.06747 110.59112 3576 ft 176 kts 49°
2026-04-21 09:20 20.07657 110.59996 3769 ft 178 kts 48°
2026-04-21 09:20 20.08567 110.60885 3962 ft 177 kts 47°
2026-04-21 09:21 20.09478 110.61762 4162 ft 177 kts 47°
2026-04-21 09:21 20.10384 110.62641 4357 ft 176 kts 48°
2026-04-21 09:21 20.11276 110.63517 4556 ft 175 kts 48°
2026-04-21 09:21 20.12180 110.64406 4760 ft 176 kts 48°
2026-04-21 09:22 20.13075 110.65289 4955 ft 175 kts 48°
2026-04-21 09:22 20.13970 110.66168 5156 ft 175 kts 47°
2026-04-21 09:22 20.14870 110.67048 5337 ft 177 kts 47°
2026-04-21 09:22 20.15774 110.67956 5419 ft 180 kts 53°
2026-04-21 09:23 20.16592 110.68995 5466 ft 186 kts 55°
2026-04-21 09:23 20.17448 110.70063 5487 ft 192 kts 53°
2026-04-21 09:23 20.18340 110.71140 5494 ft 196 kts 52°
2026-04-21 09:23 20.19261 110.72217 5496 ft 198 kts 52°
2026-04-21 09:24 20.20187 110.73283 5496 ft 200 kts 51°
2026-04-21 09:24 20.21121 110.74377 5496 ft 199 kts 52°
2026-04-21 09:24 20.22034 110.75476 5497 ft 198 kts 53°
2026-04-21 09:24 20.22949 110.76582 5497 ft 199 kts 52°
2026-04-21 09:25 20.23866 110.77682 5498 ft 199 kts 52°
2026-04-21 09:25 20.24797 110.78776 5499 ft 200 kts 52°
2026-04-21 09:25 20.25730 110.79875 5499 ft 200 kts 52°
2026-04-21 09:25 20.26657 110.80973 5498 ft 199 kts 52°
2026-04-21 09:26 20.27580 110.82075 5500 ft 200 kts 52°
2026-04-21 09:26 20.28511 110.83188 5500 ft 201 kts 52°
2026-04-21 09:26 20.29440 110.84298 5499 ft 201 kts 52°
2026-04-21 09:26 20.30368 110.85404 5499 ft 200 kts 52°
2026-04-21 09:27 20.31298 110.86505 5500 ft 200 kts 52°
2026-04-21 09:27 20.32228 110.87609 5500 ft 200 kts 52°
2026-04-21 09:27 20.33155 110.88712 5500 ft 200 kts 52°
2026-04-21 09:27 20.34080 110.89817 5502 ft 200 kts 52°
2026-04-21 09:28 20.35005 110.90922 5502 ft 200 kts 52°
2026-04-21 09:28 20.35929 110.92026 5501 ft 200 kts 52°
2026-04-21 09:28 20.36860 110.93131 5500 ft 200 kts 52°
2026-04-21 09:28 20.37787 110.94234 5500 ft 200 kts 52°
2026-04-21 09:29 20.38716 110.95335 5499 ft 200 kts 50°
2026-04-21 09:29 20.39830 110.96226 5498 ft 201 kts 36°
2026-04-21 09:29 20.41013 110.97028 5500 ft 202 kts 34°
2026-04-21 09:29 20.42190 110.97840 5499 ft 201 kts 45°
2026-04-21 09:30 20.42989 110.99026 5502 ft 196 kts 63°
2026-04-21 09:30 20.43705 111.00268 5501 ft 196 kts 63°
2026-04-21 09:30 20.44408 111.01516 5500 ft 197 kts 64°
2026-04-21 09:30 20.45107 111.02769 5500 ft 196 kts 64°
2026-04-21 09:31 20.45835 111.04005 5500 ft 197 kts 61°
2026-04-21 09:31 20.46610 111.05214 5501 ft 198 kts 59°
2026-04-21 09:31 20.47417 111.06406 5502 ft 199 kts 58°
2026-04-21 09:31 20.48225 111.07593 5501 ft 198 kts 59°
2026-04-21 09:32 20.49025 111.08793 5500 ft 198 kts 60°
2026-04-21 09:32 20.49817 111.10005 5500 ft 199 kts 60°
2026-04-21 09:32 20.50604 111.11216 5500 ft 198 kts 60°
2026-04-21 09:32 20.51382 111.12400 5499 ft 197 kts 59°
2026-04-21 09:33 20.52177 111.13598 5499 ft 197 kts 59°
2026-04-21 09:33 20.52973 111.14790 5498 ft 198 kts 59°
2026-04-21 09:33 20.53772 111.15992 5497 ft 198 kts 59°
2026-04-21 09:33 20.54561 111.17195 5500 ft 198 kts 60°
2026-04-21 09:34 20.55349 111.18399 5502 ft 197 kts 59°
2026-04-21 09:34 20.56137 111.19599 5505 ft 198 kts 59°
2026-04-21 09:34 20.56935 111.20798 5505 ft 198 kts 59°
2026-04-21 09:34 20.57730 111.21994 5507 ft 198 kts 59°
2026-04-21 09:35 20.58523 111.23200 5511 ft 199 kts 60°
2026-04-21 09:35 20.59313 111.24405 5509 ft 198 kts 60°
2026-04-21 09:35 20.60104 111.25605 5508 ft 197 kts 59°
2026-04-21 09:35 20.60892 111.26802 5509 ft 197 kts 60°
2026-04-21 09:36 20.61681 111.27994 5511 ft 197 kts 59°
2026-04-21 09:36 20.62468 111.29193 5510 ft 197 kts 59°
2026-04-21 09:36 20.63259 111.30394 5507 ft 198 kts 59°
2026-04-21 09:36 20.64054 111.31594 5508 ft 198 kts 59°
2026-04-21 09:37 20.64845 111.32791 5509 ft 197 kts 60°
2026-04-21 09:37 20.65631 111.33995 5510 ft 198 kts 60°
2026-04-21 09:37 20.66423 111.35200 5510 ft 198 kts 60°
2026-04-21 09:37 20.67218 111.36406 5509 ft 199 kts 60°
2026-04-21 09:38 20.68010 111.37612 5508 ft 198 kts 60°
2026-04-21 09:38 20.68801 111.38814 5509 ft 198 kts 59°
2026-04-21 09:38 20.69591 111.40014 5510 ft 197 kts 60°
2026-04-21 09:38 20.70382 111.41216 5510 ft 198 kts 60°
2026-04-21 09:39 20.71173 111.42416 5509 ft 198 kts 59°
2026-04-21 09:39 20.71963 111.43619 5511 ft 198 kts 60°
2026-04-21 09:39 20.72751 111.44824 5510 ft 198 kts 60°
2026-04-21 09:39 20.73541 111.46030 5513 ft 198 kts 59°
2026-04-21 09:40 20.74335 111.47234 5512 ft 198 kts 59°
2026-04-21 09:40 20.75119 111.48422 5509 ft 199 kts 59°
2026-04-21 09:40 20.75922 111.49649 5508 ft 199 kts 59°
2026-04-21 09:40 20.76710 111.50856 5508 ft 198 kts 59°
2026-04-21 09:41 20.77493 111.52046 5510 ft 198 kts 59°
2026-04-21 09:41 20.78285 111.53247 5514 ft 198 kts 59°
2026-04-21 09:41 20.79074 111.54448 5517 ft 198 kts 59°
2026-04-21 09:41 20.79865 111.55655 5519 ft 198 kts 59°
2026-04-21 09:42 20.80653 111.56863 5518 ft 198 kts 59°
2026-04-21 09:42 20.81440 111.58070 5518 ft 198 kts 59°
2026-04-21 09:42 20.82229 111.59275 5517 ft 198 kts 59°
2026-04-21 09:42 20.83021 111.60474 5517 ft 197 kts 59°
2026-04-21 09:43 20.83811 111.61674 5519 ft 197 kts 59°
2026-04-21 09:43 20.84596 111.62872 5519 ft 197 kts 59°
2026-04-21 09:43 20.85380 111.64077 5518 ft 198 kts 59°
2026-04-21 09:43 20.86168 111.65287 5518 ft 198 kts 59°
2026-04-21 09:44 20.86957 111.66492 5518 ft 198 kts 59°
2026-04-21 09:44 20.87753 111.67699 5518 ft 198 kts 59°
2026-04-21 09:44 20.88545 111.68905 5518 ft 198 kts 59°
2026-04-21 09:44 20.89332 111.70114 5518 ft 197 kts 59°
2026-04-21 09:45 20.90114 111.71317 5519 ft 198 kts 59°
2026-04-21 09:45 20.90905 111.72524 5518 ft 198 kts 59°
2026-04-21 09:45 20.91695 111.73730 5518 ft 198 kts 59°
2026-04-21 09:45 20.92472 111.74920 5519 ft 198 kts 59°
2026-04-21 09:46 20.93272 111.76142 5519 ft 198 kts 59°
2026-04-21 09:46 20.94063 111.77350 5519 ft 198 kts 59°
2026-04-21 09:46 20.94838 111.78535 5522 ft 197 kts 60°
2026-04-21 09:46 20.95616 111.79736 5524 ft 196 kts 60°
2026-04-21 09:47 20.96396 111.80936 5527 ft 197 kts 59°
2026-04-21 09:47 20.97182 111.82130 5529 ft 197 kts 59°
2026-04-21 09:47 20.97968 111.83330 5527 ft 196 kts 59°
2026-04-21 09:47 20.98746 111.84528 5528 ft 197 kts 60°
2026-04-21 09:48 20.99526 111.85723 5529 ft 195 kts 60°
2026-04-21 09:48 21.00302 111.86911 5528 ft 195 kts 60°
2026-04-21 09:48 21.01078 111.88106 5528 ft 195 kts 60°
2026-04-21 09:48 21.01851 111.89298 5529 ft 196 kts 59°
2026-04-21 09:49 21.02635 111.90494 5529 ft 196 kts 59°
2026-04-21 09:49 21.03423 111.91692 5528 ft 197 kts 59°
2026-04-21 09:49 21.04206 111.92895 5526 ft 198 kts 60°
2026-04-21 09:49 21.04989 111.94106 5526 ft 197 kts 60°
2026-04-21 09:50 21.05771 111.95315 5528 ft 198 kts 59°
2026-04-21 09:50 21.06036 111.95722 5528 ft 197 kts 59°
2026-04-21 09:50 21.07870 111.98524 5532 ft 197 kts 59°
2026-04-21 09:51 21.08651 111.99726 5534 ft 196 kts 60°
2026-04-21 09:51 21.09429 112.00931 5535 ft 197 kts 60°
2026-04-21 09:51 21.10210 112.02136 5537 ft 197 kts 59°
2026-04-21 09:51 21.10993 112.03333 5537 ft 197 kts 59°
2026-04-21 09:52 21.11775 112.04531 5537 ft 196 kts 59°
2026-04-21 09:52 21.12556 112.05730 5537 ft 196 kts 59°
2026-04-21 09:52 21.13334 112.06930 5537 ft 196 kts 59°
2026-04-21 09:52 21.14117 112.08140 5538 ft 197 kts 59°
2026-04-21 09:53 21.14899 112.09346 5543 ft 197 kts 59°
2026-04-21 09:53 21.15683 112.10550 5538 ft 198 kts 59°
2026-04-21 09:53 21.16470 112.11756 5537 ft 197 kts 59°
2026-04-21 09:53 21.17252 112.12963 5537 ft 197 kts 59°
2026-04-21 09:54 21.18023 112.14155 5537 ft 198 kts 59°
2026-04-21 09:54 21.18807 112.15363 5536 ft 197 kts 59°
2026-04-21 09:54 21.19588 112.16569 5536 ft 196 kts 59°
2026-04-21 09:54 21.20368 112.17768 5541 ft 196 kts 59°
2026-04-21 09:55 21.21148 112.18972 5544 ft 197 kts 59°
2026-04-21 09:55 21.21929 112.20177 5544 ft 197 kts 59°
2026-04-21 09:55 21.22713 112.21380 5545 ft 197 kts 59°
2026-04-21 09:55 21.23494 112.22586 5550 ft 197 kts 59°
2026-04-21 09:56 21.24272 112.23794 5548 ft 197 kts 59°
2026-04-21 09:56 21.25054 112.25003 5547 ft 197 kts 59°
2026-04-21 09:56 21.25835 112.26206 5546 ft 196 kts 59°
2026-04-21 09:56 21.26617 112.27410 5545 ft 197 kts 59°
2026-04-21 09:57 21.27397 112.28616 5550 ft 197 kts 59°
2026-04-21 09:57 21.28179 112.29822 5548 ft 197 kts 59°
2026-04-21 09:57 21.28959 112.31030 5545 ft 197 kts 59°
2026-04-21 09:57 21.29736 112.32233 5545 ft 196 kts 59°
2026-04-21 09:58 21.30513 112.33435 5545 ft 196 kts 59°
2026-04-21 09:58 21.31293 112.34640 5545 ft 197 kts 59°
2026-04-21 09:58 21.32075 112.35845 5547 ft 197 kts 59°
2026-04-21 09:58 21.32855 112.37052 5548 ft 197 kts 59°
2026-04-21 09:59 21.33632 112.38260 5553 ft 196 kts 59°
2026-04-21 09:59 21.34406 112.39462 5552 ft 196 kts 59°
2026-04-21 09:59 21.35179 112.40651 5552 ft 197 kts 59°
2026-04-21 09:59 21.35960 112.41858 5554 ft 197 kts 59°
2026-04-21 10:00 21.36740 112.43066 5558 ft 197 kts 59°
2026-04-21 10:00 21.37518 112.44275 5556 ft 197 kts 59°
2026-04-21 10:00 21.38298 112.45484 5557 ft 197 kts 59°
2026-04-21 10:00 21.39076 112.46691 5558 ft 197 kts 59°
2026-04-21 10:01 21.39855 112.47898 5557 ft 197 kts 59°
2026-04-21 10:01 21.40636 112.49108 5555 ft 197 kts 59°
2026-04-21 10:01 21.41416 112.50315 5555 ft 197 kts 59°
2026-04-21 10:01 21.42194 112.51521 5558 ft 197 kts 59°
2026-04-21 10:02 21.43747 112.53937 5554 ft 197 kts 59°
2026-04-21 10:02 21.44518 112.55131 5554 ft 196 kts 59°
2026-04-21 10:02 21.45296 112.56335 5556 ft 196 kts 59°
2026-04-21 10:03 21.46072 112.57538 5556 ft 196 kts 60°
2026-04-21 10:03 21.46847 112.58746 5558 ft 196 kts 60°
2026-04-21 10:03 21.47622 112.59956 5561 ft 197 kts 59°
2026-04-21 10:03 21.48399 112.61160 5564 ft 197 kts 59°
2026-04-21 10:04 21.49169 112.62352 5565 ft 197 kts 59°
2026-04-21 10:04 21.49947 112.63560 5566 ft 197 kts 59°
2026-04-21 10:04 21.50722 112.64770 5565 ft 197 kts 59°
2026-04-21 10:04 21.51498 112.65977 5565 ft 196 kts 59°
2026-04-21 10:05 21.52275 112.67185 5567 ft 196 kts 59°
2026-04-21 10:05 21.53050 112.68392 5566 ft 197 kts 59°
2026-04-21 10:05 21.53829 112.69602 5564 ft 197 kts 59°
2026-04-21 10:05 21.54606 112.70810 5564 ft 196 kts 59°
2026-04-21 10:06 21.55382 112.72020 5564 ft 196 kts 59°
2026-04-21 10:06 21.56154 112.73221 5563 ft 195 kts 59°
2026-04-21 10:06 21.56925 112.74421 5565 ft 195 kts 59°
2026-04-21 10:06 21.57696 112.75625 5567 ft 196 kts 59°
2026-04-21 10:07 21.58472 112.76836 5560 ft 196 kts 60°
2026-04-21 10:07 21.59245 112.78036 5565 ft 195 kts 59°
2026-04-21 10:07 21.60015 112.79234 5576 ft 195 kts 59°
2026-04-21 10:07 21.60786 112.80436 5575 ft 195 kts 59°
2026-04-21 10:08 21.61552 112.81639 5575 ft 196 kts 59°
2026-04-21 10:08 21.62325 112.82845 5574 ft 196 kts 59°
2026-04-21 10:08 21.63096 112.84045 5573 ft 195 kts 59°
2026-04-21 10:08 21.63867 112.85247 5575 ft 195 kts 59°
2026-04-21 10:09 21.64636 112.86449 5576 ft 196 kts 59°
2026-04-21 10:09 21.65411 112.87653 5576 ft 196 kts 59°
2026-04-21 10:09 21.66183 112.88859 5575 ft 196 kts 60°
2026-04-21 10:09 21.66955 112.90070 5550 ft 197 kts 59°
2026-04-21 10:10 21.67736 112.91292 5523 ft 198 kts 59°
2026-04-21 10:10 21.68514 112.92506 5509 ft 197 kts 59°
2026-04-21 10:10 21.69292 112.93721 5504 ft 197 kts 59°
2026-04-21 10:10 21.70068 112.94931 5502 ft 196 kts 59°
2026-04-21 10:11 21.70829 112.96124 5501 ft 196 kts 59°
2026-04-21 10:11 21.71597 112.97331 5501 ft 195 kts 59°
2026-04-21 10:11 21.72366 112.98529 5501 ft 194 kts 59°
2026-04-21 10:11 21.73134 112.99724 5500 ft 194 kts 59°
2026-04-21 10:12 21.73900 113.00924 5500 ft 194 kts 59°
2026-04-21 10:12 21.74661 113.02123 5500 ft 194 kts 59°
2026-04-21 10:12 21.75427 113.03323 5500 ft 194 kts 59°
2026-04-21 10:12 21.76194 113.04521 5500 ft 195 kts 59°
2026-04-21 10:13 21.76959 113.05720 5501 ft 194 kts 59°
2026-04-21 10:13 21.77727 113.06920 5501 ft 195 kts 59°
2026-04-21 10:13 21.78494 113.08123 5500 ft 195 kts 59°
2026-04-21 10:13 21.79259 113.09325 5501 ft 194 kts 59°
2026-04-21 10:14 21.80024 113.10524 5500 ft 195 kts 59°
2026-04-21 10:14 21.80791 113.11724 5499 ft 194 kts 59°
2026-04-21 10:14 21.81556 113.12923 5498 ft 194 kts 59°
2026-04-21 10:14 21.82320 113.14126 5499 ft 194 kts 59°
2026-04-21 10:15 21.83081 113.15324 5501 ft 194 kts 59°
2026-04-21 10:15 21.83848 113.16522 5500 ft 194 kts 59°
2026-04-21 10:15 21.84614 113.17719 5499 ft 194 kts 59°
2026-04-21 10:15 21.85377 113.18920 5501 ft 194 kts 59°
2026-04-21 10:16 21.86137 113.20119 5500 ft 194 kts 59°
2026-04-21 10:16 21.86888 113.21303 5500 ft 194 kts 59°
2026-04-21 10:16 21.87655 113.22502 5500 ft 194 kts 59°
2026-04-21 10:16 21.88420 113.23700 5500 ft 194 kts 59°
2026-04-21 10:17 21.89192 113.24913 5503 ft 194 kts 59°
2026-04-21 10:17 21.89942 113.26097 5508 ft 194 kts 59°
2026-04-21 10:17 21.90707 113.27294 5521 ft 195 kts 58°
2026-04-21 10:17 21.91470 113.28508 5500 ft 195 kts 59°
2026-04-21 10:18 21.92242 113.29708 5495 ft 195 kts 58°
2026-04-21 10:18 21.93057 113.30841 5492 ft 195 kts 55°
2026-04-21 10:18 21.93897 113.31981 5493 ft 194 kts 55°
2026-04-21 10:18 21.94669 113.33059 5497 ft 194 kts 57°
2026-04-21 10:19 21.95480 113.34222 5498 ft 194 kts 57°
2026-04-21 10:19 21.96288 113.35387 5498 ft 194 kts 57°
2026-04-21 10:19 21.97110 113.36552 5404 ft 198 kts 56°
2026-04-21 10:19 21.97943 113.37716 5256 ft 191 kts 56°
2026-04-21 10:20 21.98725 113.38805 5103 ft 181 kts 56°
2026-04-21 10:20 21.99458 113.39837 4955 ft 178 kts 57°
2026-04-21 10:20 22.00198 113.40891 4814 ft 175 kts 57°
2026-04-21 10:20 22.00932 113.41934 4657 ft 174 kts 57°
2026-04-21 10:21 22.01667 113.42970 4508 ft 174 kts 57°
2026-04-21 10:21 22.02405 113.44009 4352 ft 174 kts 57°
2026-04-21 10:21 22.03137 113.45045 4210 ft 174 kts 57°
2026-04-21 10:21 22.03866 113.46071 4062 ft 174 kts 56°
2026-04-21 10:22 22.04600 113.47108 3912 ft 173 kts 56°
2026-04-21 10:22 22.05335 113.48148 3713 ft 175 kts 56°
2026-04-21 10:22 22.06056 113.49160 3452 ft 167 kts 56°
2026-04-21 10:22 22.06752 113.50142 3201 ft 164 kts 57°
2026-04-21 10:23 22.07434 113.51116 2944 ft 162 kts 57°
2026-04-21 10:23 22.08110 113.52079 2699 ft 161 kts 56°
2026-04-21 10:23 22.08790 113.53036 2467 ft 162 kts 56°
2026-04-21 10:23 22.09474 113.54001 2206 ft 162 kts 56°
2026-04-21 10:24 22.10154 113.54967 1951 ft 162 kts 56°
2026-04-21 10:24 22.10836 113.55926 1721 ft 160 kts 55°
2026-04-21 10:24 22.11495 113.56851 1615 ft 156 kts 56°
2026-04-21 10:24 22.12138 113.57761 1553 ft 148 kts 56°
2026-04-21 10:25 22.12752 113.58639 1537 ft 145 kts 56°
2026-04-21 10:25 22.13456 113.59393 1510 ft 144 kts 25°
2026-04-21 10:25 22.14433 113.59575 1512 ft 142 kts
2026-04-21 10:25 22.15331 113.59783 1691 ft 121 kts 17°
2026-04-21 10:26 22.16099 113.60021 1628 ft 115 kts 21°
2026-04-21 10:26 22.16862 113.60318 1336 ft 113 kts 21°
2026-04-21 10:26 22.17581 113.60581 1116 ft 101 kts 16°
2026-04-21 10:26 22.18221 113.60532 987 ft 90 kts 333°
2026-04-21 10:27 22.18674 113.60144 952 ft 77 kts 303°
2026-04-21 10:27 22.18961 113.59629 844 ft 81 kts 287°
2026-04-21 10:27 22.18904 113.59095 795 ft 70 kts 230°
2026-04-21 10:27 22.18521 113.58773 732 ft 70 kts 214°
2026-04-21 10:28 22.18103 113.58488 684 ft 72 kts 211°
2026-04-21 10:28 22.17617 113.58317 595 ft 79 kts 192°
2026-04-21 10:28 22.17054 113.58369 408 ft 84 kts 171°
2026-04-21 10:28 22.16488 113.58575 174 ft 86 kts 166°
2026-04-21 10:29 22.15946 113.58775 44 ft 79 kts 165°
2026-04-21 10:29 22.15455 113.58950 25 ft 70 kts 160°
2026-04-21 10:29 22.15038 113.59108 27 ft 56 kts 160°
2026-04-21 10:29 22.14700 113.59233 26 ft 47 kts 161°
2026-04-21 10:30 22.14601 113.59251 27 ft 9 kts 274°
2026-04-21 10:30 22.14581 113.59155 27 ft 14 kts 249°
2026-04-21 10:30 22.14618 113.59076 27 ft 20 kts 342°
2026-04-21 10:30 22.14746 113.59003 27 ft 19 kts 308°
2026-04-21 10:31 22.14826 113.58874 27 ft 23 kts 304°
2026-04-21 10:31 22.14919 113.58720 27 ft 28 kts 306°
2026-04-21 10:31 22.15026 113.58551 27 ft 27 kts 306°
2026-04-21 10:31 22.15124 113.58394 27 ft 29 kts 302°
2026-04-21 10:32 22.15218 113.58238 27 ft 27 kts 302°
2026-04-21 10:32 22.15317 113.58083 27 ft 25 kts 305°
2026-04-21 10:32 22.15412 113.57930 27 ft 25 kts 303°
2026-04-21 10:32 22.15511 113.57768 27 ft 26 kts 305°
2026-04-21 10:33 22.15589 113.57640 27 ft 17 kts 300°
2026-04-21 10:33 22.15598 113.57539 27 ft 14 kts 232°
2026-04-21 10:33 22.15537 113.57437 27 ft 19 kts 239°
2026-04-21 10:33 22.15474 113.57308 27 ft 17 kts 244°
2026-04-21 10:34 22.15408 113.57269 27 ft 12 kts 243°
2026-04-21 10:34 22.15354 113.57260 27 ft 5 kts 153°
2026-04-21 10:34 22.15353 113.57261 27 ft 0 kts 153°